Location: Azul
(36.7830°S, 59.8500°W)
Time: 01:25:56
(UTC-03:00)

DELFI C3 - Pass Details

Date: 01 November 2021
Orbit: 529 x 543 km, 97.4° (Epoch: 30 November)

Event Time Altitude Azimuth Distance (km) Brightness Sun altitude
Rises 21:52:54 0° 188° (S) 2,729 ? -24.7°
Reaches altitude 10° 21:55:38 10° 208° (SSW) 1,824 ? -25.1°
Maximum altitude 21:58:11 17° 248° (WSW) 1,431 ? -25.5°
Drops below altitude 10° 22:00:42 10° 289° (WNW) 1,801 ? -25.8°
Sets 22:03:23 0° 309° (NW) 2,679 ? -26.2°
Enters shadow 22:03:36 -1° 310° (NW) 2,758 ? -26.2°
